Location: Strawberry
(45.6646°N, 111.9596°W)
Time: 18:42:52
(UTC+00:00)

SR - Pass Details

Date: 06 October 2022
Orbit: 577 x 874 km, 66.7° (Epoch: 05 December)

Event Time Altitude Azimuth Distance (km) Brightness Sun altitude
Rises 11:01:51 0° 331° (NNW) 3,369 ? -26.7°
Reaches altitude 10° 11:04:39 10° 341° (NNW) 2,390 ? -26.2°
Maximum altitude 11:09:31 32° 43° (NE) 1,301 ? -25.5°
Drops below altitude 10° 11:14:02 10° 107° (ESE) 2,204 ? -24.7°
Sets 11:16:31 0° 117° (ESE) 3,067 ? -24.3°
